Flag for Germany Weather past 2 weeks in Ludwigsburg, Baden-Württemberg, Germany

Now
59 °F

Clear.


Feels Like: 59 °F
Forecast: 60 / 85 °F
Wind: 1 mph from North

Location: Stuttgart-Echterdingen

Current Time: Aug 1, 2014 at 4:13:49 AM

Latest Report: Aug 1, 2014 at 3:20 AM


Visibility: 10 mi

Pressure: 29.95 "Hg

Humidity: 88%

Dew point: 55 °F

Location of LudwigsburgLocation

Historic Weather in Ludwigsburg — Graph

°F

Ludwigsburg temperature yesterday

Maximum temperature yesterday: 75 °F (at 3:20 PM)
Minimum temperature yesterday: 63 °F (at 4:20 AM)
Average temperature yesterday: 68 °F

Past Weeks' High & Low Weather Summary

 TemperatureHumidityPressure
High91 °F (Jul 19, 3:50 PM)100% (Jul 20, 11:50 PM)30.21 "Hg (Jul 20, 11:50 PM)
Low57 °F (Jul 18, 5:50 AM)22% (Jul 18, 2:50 PM)29.77 "Hg (Jul 28, 6:20 PM)
Average69 °F72%29.95 "Hg
* Reported Jul 17 2:20 AM — Aug 1 2:50 AM, Ludwigsburg, Weather by CustomWeather, © 2014

Note: Actual official high and low records may vary slightly from our data, if they occured in-between our weather recording intervals... More about our weather records

Advertising

Ludwigsburg weather history for previous 24 hours

 ConditionsComfort  
Time TempWeatherWind HumidityBarometerVisibility
2:50 AM
Aug 1
59 °FClear.2 mph94%29.95 "Hg10 mi
2:20 AM59 °FClear.2 mph94%29.98 "Hg10 mi
1:50 AM61 °FClear.2 mph88%29.95 "Hg10 mi
1:20 AM61 °FClear.2 mph88%29.98 "Hg10 mi
12:50 AM63 °FClear.1 mph83%29.98 "Hg10 mi
12:20 AM63 °FClear.1 mph83%29.98 "Hg10 mi
11:50 PM
Jul 31
63 °FClear.1 mph83%29.98 "Hg10 mi
11:20 PM64 °FClear.2 mph78%29.98 "Hg10 mi
10:50 PM66 °FClear.1 mph73%29.98 "Hg10 mi
10:20 PM66 °FClear.3 mph73%29.98 "Hg10 mi
9:50 PM68 °FSunny.1 mph69%29.98 "Hg10 mi
9:20 PM70 °FSunny.6 mph64%29.95 "Hg10 mi
8:50 PM70 °FSunny.3 mph64%29.95 "Hg10 mi
8:20 PM72 °FPassing clouds.6 mph61%29.95 "HgN/A
7:50 PM72 °FPassing clouds.7 mph61%29.95 "HgN/A
7:20 PM73 °FPassing clouds.6 mph57%29.95 "HgN/A
6:50 PM75 °FScattered clouds.3 mph47%29.98 "HgN/A
6:20 PM75 °FPassing clouds.5 mph50%29.98 "HgN/A
5:50 PM75 °FScattered clouds.6 mph54%29.98 "HgN/A
5:20 PM75 °FScattered clouds.5 mph50%29.98 "HgN/A
4:50 PM75 °FScattered clouds.3 mph47%29.98 "HgN/A
4:20 PM75 °FScattered clouds.3 mph47%29.98 "HgN/A
3:50 PM73 °FScattered clouds.3 mph53%29.98 "HgN/A
3:20 PM75 °FScattered clouds.1 mph61%30.01 "HgN/A
2:50 PM73 °FScattered clouds.6 mph53%30.01 "HgN/A
2:20 PM72 °FScattered clouds.5 mph61%30.01 "HgN/A
1:50 PM73 °FScattered clouds.3 mph57%30.01 "HgN/A
1:20 PM73 °FScattered clouds.3 mph57%30.01 "HgN/A
12:50 PM72 °FScattered clouds.3 mph57%30.01 "HgN/A
12:20 PM72 °FScattered clouds.2 mph57%30.04 "HgN/A
11:50 AM70 °FScattered clouds.1 mph69%30.04 "HgN/A
11:20 AM70 °FPassing clouds.1 mph69%30.04 "HgN/A
10:50 AM70 °FPassing clouds.3 mph69%30.04 "HgN/A
10:20 AM68 °FPartly sunny.3 mph73%30.04 "HgN/A
9:50 AM66 °FBroken clouds.3 mph78%30.04 "HgN/A
9:20 AM66 °FBroken clouds.3 mph78%30.04 "HgN/A
8:50 AM64 °FPartly sunny.3 mph83%30.04 "HgN/A
8:20 AM63 °FPartly sunny.1 mph88%30.04 "HgN/A
7:50 AM63 °FPartly sunny.2 mph83%30.04 "HgN/A
7:20 AM63 °FBroken clouds.5 mph83%30.01 "HgN/A
6:50 AM63 °FPassing clouds.6 mph83%30.01 "HgN/A
6:20 AM63 °FPassing clouds.8 mph83%30.01 "HgN/A
5:50 AM63 °FClear.7 mph88%30.01 "Hg10 mi
5:20 AM63 °FClear.7 mph88%30.01 "Hg10 mi
4:50 AM63 °FClear.5 mph88%30.01 "Hg10 mi
4:20 AM63 °FPassing clouds.6 mph88%30.01 "HgN/A
Weather by CustomWeather, © 2014

See weather overviewHow to use our weather pages